Location: Fabian
(42.8000°N, 0.2333°E)
Time: 10:21:25
(UTC+00:00)

Daily predictions for brighter satellites

Satellite Brightness Start Highest point End
(mag) Time Altitude Azimuth Time Altitude Azimuth Time Altitude Azimuth
Cosmos 1110 Rocket 4.4 18:43:06 10° N 18:48:08 44° ENE 18:53:04 10° SE
Cosmos 332 Rocket 3.9 18:44:31 10° NNW 18:49:25 62° ENE 18:54:16 10° SSE
SL-16 R/B 2.9 18:44:52 10° SSE 18:49:44 31° ESE 18:54:37 10° NE
Cosmos 2333 Rocket 4.0 18:44:48 10° WSW 18:50:02 37° WNW 18:55:17 10° N
STARLINK-1230 3.6 18:46:14 10° SW 18:50:12 60° SE 18:54:11 10° ENE
Cosmos 1892 Rocket 3.9 18:47:49 10° N 18:52:11 48° ENE 18:56:30 10° SSE
USA 186 3.2 18:50:47 10° SE 18:53:35 24° ENE 18:56:22 10° NNE
STARLINK-1234 3.6 18:50:40 10° WSW 18:53:36 52° NNW 18:56:33 10° NE
CSL-04 Rocket 3.8 18:48:38 10° S 18:53:57 79° WSW 18:59:17 10° NNW
ARGOS Delta rocket 4.4 18:49:45 10° SE 18:54:33 45° ENE 18:59:36 10° N
STARLINK-1243 3.6 18:50:54 10° SW 18:54:54 65° SE 18:58:54 10° ENE
Meteor 2-21 Rocket 4.4 18:49:38 10° N 18:55:44 81° E 19:01:47 10° S
NOSS 2-1 (E) 4.3 18:53:01 10° WSW 18:56:16 42° NW 18:59:47 10° NNE
Meteor 2-16 Rocket 4.5 18:50:13 10° N 18:56:23 69° E 19:02:30 10° SSE
Cosmos 1626 3.4 18:53:39 10° NNE 18:56:35 22° ENE 18:59:32 10° SE
STARLINK-1079 4.5 18:55:26 10° NW 18:59:09 36° NNE 19:02:49 10° E
STARLINK-1236 3.5 18:55:32 10° SW 18:59:33 71° SE 19:03:34 10° ENE
Okean 1-7 Rocket 3.8 18:55:49 10° N 19:00:06 49° ENE 19:04:21 10° SSE
Cosmos 1242 Rocket 4.1 18:57:08 10° NNW 19:00:24 39° W 19:03:39 10° SSW
STARLINK-1116 4.4 18:59:54 10° NW 19:03:40 38° NNE 19:07:08 12° E
SJ-11-01 4.3 18:59:46 10° SSE 19:04:23 62° ENE 19:09:03 10° N
H-2A R/B 2.4 19:00:20 10° SE 19:05:26 48° ENE 19:10:26 10° N
STARLINK-1269 3.5 19:04:54 10° SW 19:08:57 84° SE 19:12:59 10° NE
STARLINK-1118 2.0 19:07:40 10° NW 19:09:53 78° SW 19:11:31 16° SE
Cosmos 1544 Rocket 3.9 19:07:06 10° SSE 19:11:16 44° E 19:15:29 10° NNE
STARLINK-1094 4.2 19:08:50 10° NW 19:12:41 43° NNE 19:15:46 15° E
HJ-1C 3.6 19:10:09 10° S 19:13:28 74° WSW 19:16:51 10° NNW
STARLINK-1200 3.5 19:09:35 10° SW 19:13:38 89° NNW 19:17:42 10° NE
Cosmos 1745 Rocket 4.0 19:08:00 10° N 19:14:21 86° E 19:20:35 10° S
Cosmos 2297 4.1 19:10:19 10° NNW 19:15:47 47° ENE 19:20:56 12° SE
USA 234 3.3 19:10:39 10° NE 19:17:06 58° SE 19:23:31 10° SSW
STARLINK-1117 4.1 19:13:21 10° NW 19:17:13 45° NNE 19:20:06 16° E
STARLINK-1192 3.6 19:14:14 10° SW 19:18:17 83° NW 19:22:21 10° NE
Meteor 2-5 Rocket 3.8 19:14:00 10° NNW 19:19:41 81° W 19:25:13 10° S
Cosmos 2237 Rocket 2.9 19:14:18 10° SW 19:19:49 58° WNW 19:25:23 10° NNE
Cosmos 1805 3.8 19:16:01 10° SSW 19:19:53 61° W 19:23:46 10° N
STARLINK-1078 4.0 19:17:49 10° NW 19:21:44 48° NNE 19:24:26 18° E
ADEOS Rocket 4.1 19:15:33 10° N 19:22:07 52° WNW 19:28:00 10° SW
STARLINK-1244 3.7 19:19:02 10° WSW 19:23:05 77° NW 19:27:08 10° NE
STARLINK-1201 4.2 19:20:27 10° WSW 19:23:34 41° NNW 19:26:42 10° NE
Cosmos 1302 Rocket 4.4 19:20:38 10° N 19:25:41 44° ENE 19:29:43 15° SE
STARLINK-1108 3.9 19:22:20 10° NW 19:26:17 52° NNE 19:28:47 20° E
Cosmos 1269 Rocket 3.9 19:21:53 10° SSW 19:27:09 76° ESE 19:32:27 10° NNE
STARLINK-1138 3.8 19:23:44 10° WSW 19:27:47 71° NW 19:31:50 10° NE
Cosmos 2278 Rocket 3.4 19:22:38 10° NW 19:27:58 43° WSW 19:33:17 10° S
CZ-2C R/B 3.5 19:24:56 10° NE 19:29:10 25° E 19:32:38 13° SE
STARLINK-1066 2.8 19:27:34 10° NW 19:30:44 76° NE 19:32:18 27° ESE
STARLINK-1071 3.8 19:26:50 10° NW 19:30:49 55° NNE 19:33:08 23° ESE
STARLINK-1081 2.8 19:28:03 10° NW 19:31:10 77° NE 19:32:41 27° ESE
STARLINK-1070 2.8 19:28:29 10° NW 19:31:37 77° NE 19:33:06 28° ESE
STARLINK-1124 3.8 19:27:44 10° NW 19:31:50 57° NNE 19:34:14 23° ESE
STARLINK-1069 2.8 19:28:54 10° NW 19:32:03 78° NE 19:33:34 28° ESE
STARLINK-1085 2.8 19:29:20 10° NW 19:32:30 79° NE 19:34:00 28° ESE
STARLINK-1143 3.9 19:28:32 10° WSW 19:32:34 66° NNW 19:36:37 10° NE
STARLINK-1086 2.8 19:29:50 10° NW 19:32:58 80° NNE 19:34:25 29° ESE
CZ-4 R/B 4.4 19:31:05 10° SW 19:33:22 15° W 19:35:38 10° NW
STARLINK-1095 2.8 19:30:17 10° NW 19:33:24 80° NE 19:34:50 29° ESE
ARGOS 3.1 19:28:07 10° SSE 19:33:29 72° ENE 19:38:53 10° N
STARLINK-1077 2.8 19:30:43 10° NW 19:33:51 81° NE 19:35:16 29° ESE
STARLINK-1075 2.8 19:31:11 10° NW 19:34:18 82° NNE 19:35:42 30° ESE
STARLINK-1093 2.8 19:31:36 10° NW 19:34:45 83° NNE 19:36:10 30° ESE
Meteor 1-24 Rocket 3.7 19:29:28 10° NNW 19:35:01 80° W 19:40:22 10° S
STARLINK-1074 2.8 19:32:02 10° NW 19:35:12 84° NE 19:36:36 30° ESE
STARLINK-1110 3.7 19:31:21 10° NW 19:35:20 60° NNE 19:37:29 25° ESE
STARLINK-1087 2.8 19:32:32 10° NW 19:35:40 84° NE 19:37:00 31° ESE
STARLINK-1088 2.8 19:32:59 10° NW 19:36:07 85° NE 19:37:26 31° ESE
STARLINK-1115 2.8 19:33:24 10° NW 19:36:34 86° NE 19:37:55 31° SE
STARLINK-1076 2.8 19:33:50 10° NW 19:37:00 87° NE 19:38:20 32° SE
STARLINK-1092 2.8 19:34:18 10° NW 19:37:28 88° NE 19:38:47 32° SE
MOS 1 4.2 19:32:09 10° SSE 19:37:47 84° ENE 19:43:28 10° NNW
STARLINK-1080 2.8 19:34:47 10° NW 19:37:55 88° NNE 19:39:10 33° SE
STARLINK-1090 2.8 19:35:14 10° NW 19:38:22 89° ENE 19:39:36 33° SE
STARLINK-1089 2.8 19:35:41 10° NW 19:38:49 90° W 19:40:02 34° SE
SL-24 R/B 4.4 19:34:44 10° NNE 19:39:04 41° E 19:42:52 10° SSE
STARLINK-1107 2.8 19:36:08 10° NW 19:39:15 89° WSW 19:40:28 34° SE
Cosmos 1470 2.7 19:36:21 10° S 19:40:07 55° E 19:43:56 10° NNE
STARLINK-1241 4.2 19:39:05 10° WSW 19:43:01 55° NNW 19:46:59 10° NE
Cosmos 2315 Rocket 3.9 19:37:58 10° S 19:44:13 75° E 19:50:34 10° N
STARLINK-1122 3.6 19:40:30 10° NW 19:44:31 69° NNE 19:46:17 31° ESE
SL-08 RB Rocket 3.6 19:40:53 14° SSE 19:44:41 66° ENE 19:49:12 10° N
SJ-6B 2.8 19:42:00 12° SSE 19:45:47 83° ENE 19:49:55 10° N
MetOp-A 4.3 19:42:29 18° SE 19:46:19 52° ENE 19:51:31 10° N
Resurs 1-3 4.0 19:44:44 26° ESE 19:46:38 42° ENE 19:50:47 10° N
ISS -1.7 19:44:05 10° NW 19:46:42 20° N 19:48:11 16° NE
STARLINK-1239 4.3 19:43:42 10° WSW 19:47:37 51° NNW 19:51:30 10° NE
Cosmos 1758 3.3 19:43:58 10° S 19:48:01 64° E 19:52:04 10° NNE
STARLINK-1126 3.5 19:45:07 10° NW 19:49:09 75° NE 19:50:44 35° ESE
BREEZE M DEB (TANK) 4.5 19:38:43 10° SW 19:51:31 43° SSE 19:53:49 27° E
CZ-2C R/B 3.2 19:47:05 10° S 19:52:12 73° WSW 19:57:05 10° NNW
STARLINK-1240 4.4 19:48:20 10° WSW 19:52:14 48° NNW 19:55:56 11° NE
Cosmos 304 Rocket 4.5 19:48:27 10° NNW 19:53:07 53° WSW 19:57:44 10° S
STARLINK-1082 3.5 19:49:40 10° NW 19:53:43 80° NNE 19:55:08 39° ESE
Resurs 01 Rocket 2.3 19:53:05 31° E 19:54:02 35° ENE 19:58:03 10° N
FREGAT/IRIS 3.8 19:52:27 12° SSW 19:54:45 37° W 19:57:19 10° NNW
Abrixas rocket 2.8 19:52:02 10° SW 19:54:14 36° S 19:54:14 36° S
Cosmos 2369 Rocket 3.1 19:50:58 10° N 19:56:04 32° NE 19:57:50 27° E
STARLINK-1100 3.4 19:54:14 10° NW 19:58:18 86° NE 19:59:31 44° ESE
Meteor 2-15 Rocket 4.3 19:54:15 10° S 20:00:15 71° E 20:06:19 10° NNE
STARLINK-1083 3.4 19:58:51 10° NW 20:02:54 88° SW 20:03:57 49° SE
IRIDIUM 114 4.3 19:57:46 10° N 20:02:55 58° E 20:05:35 28° SSE
SPOT 3 Rocket 3.5 20:00:43 19° SSE 20:04:28 83° ENE 20:09:43 10° NNW
Cosmos 1726 3.8 20:06:30 20° NE 20:06:30 20° NE 20:08:01 10° NNE
SL-14 R/B 4.3 20:03:03 10° NNW 20:06:57 46° W 20:10:47 10° SSW
STARLINK-1125 3.5 20:03:28 10° NW 20:07:31 81° SW 20:08:23 53° SE
Meteor 1-21 Rocket 4.2 20:03:43 10° N 20:09:15 61° ENE 20:11:31 35° SE
STARLINK-1109 3.5 20:07:46 10° WNW 20:11:50 76° SW 20:12:32 57° SSE
Cosmos 1709 Rocket 4.4 20:05:47 10° NNW 20:11:54 62° W 20:17:55 10° S
IRIDIUM 103 4.2 20:06:54 10° N 20:12:08 71° E 20:14:44 30° SSE
MOS 1 Rocket 3.5 20:09:06 10° NNE 20:14:20 67° E 20:19:07 13° S
STARLINK-1091 3.6 20:12:27 10° WNW 20:16:30 70° SW 20:17:02 60° S
Cosmos 1943 4.4 20:19:28 25° ENE 20:19:28 25° ENE 20:22:13 10° NE
Cosmos 292 Rocket 3.9 20:13:58 10° N 20:18:39 52° ENE 20:19:07 50° E
STARLINK-1099 4.4 20:14:55 10° NW 20:18:48 38° NNE 20:19:17 36° NE
Cosmos 1943 Rocket 2.1 20:16:01 10° NNW 20:21:31 64° ENE 20:22:51 48° ESE
STARLINK-1104 4.4 20:19:53 10° NW 20:23:49 40° NNE 20:24:04 39° NE
Cosmos 2074 Rocket 3.9 20:18:12 10° N 20:24:28 67° E 20:26:45 40° SSE
STARLINK-1144 4.3 20:24:50 10° NW 20:28:48 42° NNE 20:28:50 42° NNE
STARLINK-1072 3.9 20:25:31 10° WNW 20:29:26 53° SW 20:29:27 53° SW
Cosmos 1953 2.3 20:29:29 67° SW 20:29:55 78° W 20:33:55 10° N
IRIDIUM 106 4.3 20:25:10 10° N 20:30:24 79° W 20:32:57 31° S
Meteor 2-10 3.9 20:28:33 39° S 20:30:31 73° E 20:36:01 10° NNE
NOSS 3-3 (A) 3.8 20:25:35 10° SSW 20:31:13 59° ESE 20:37:31 10° NE
NOSS 3-3 (C) 3.8 20:25:42 10° SSW 20:31:19 59° ESE 20:37:37 10° NE
Cosmos 1626 4.5 20:28:50 10° NW 20:31:45 22° W 20:34:41 10° SW
Spot 2 Rocket 3.8 20:33:06 48° ENE 20:33:06 48° ENE 20:37:56 10° N
TSX-5 4.4 20:27:58 10° NNW 20:33:03 59° WSW 20:33:49 50° SSW
SL-16 R/B 3.5 20:28:22 10° SW 20:33:41 40° WNW 20:39:01 10° NNE
STARLINK-1103 4.3 20:29:47 10° NW 20:33:37 45° NNE 20:33:37 45° NNE
STARLINK-1096 4.1 20:30:01 10° WNW 20:33:44 48° SW 20:33:44 48° SW
Cosmos 2084 Rocket 3.8 20:31:08 10° NNW 20:35:19 57° NNE 20:35:19 57° NNE
STARLINK-1079 4.3 20:34:31 10° WNW 20:38:03 43° WSW 20:38:03 43° WSW
STARLINK-1101 4.3 20:34:46 10° NW 20:38:25 47° N 20:38:25 47° N
Aureole 3 4.3 20:38:26 24° SW 20:40:36 49° WNW 20:45:20 10° N
STARLINK-1102 4.3 20:39:44 10° NW 20:43:11 47° N 20:43:11 47° N
Aureole 2 Rocket 4.1 20:40:47 10° NNW 20:42:44 31° NNW 20:42:44 31° NNW
H-2A R/B 4.3 20:40:57 10° SW 20:45:03 22° W 20:49:06 10° NW
Terra 3.9 20:49:36 16° NE 20:49:36 16° NE 20:51:10 10° NNE
STARLINK-1111 4.4 20:44:41 10° NW 20:47:58 46° NNW 20:47:58 46° NNW
Cosmos 1603 3.5 20:53:25 47° SSW 20:55:09 89° ESE 21:00:49 10° NNE
Meteor 1-16 Rocket 4.1 20:54:16 61° SSW 20:55:12 80° W 21:00:40 10° N
ATLAS 2AS CENTAUR R/B 3.5 20:49:16 10° NNW 20:56:21 39° NE 20:57:41 36° ENE
Cosmos 1825 Rocket 4.1 20:54:14 10° NNW 20:57:50 55° NNW 20:57:50 55° NNW
USA 234 4.0 20:53:46 10° NE 21:00:01 49° NNW 21:06:15 10° WSW
MetOp-B 4.0 21:01:13 83° WSW 21:01:16 84° WSW 21:06:40 10° NNW
Cosmos 2327 Rocket 4.4 20:56:20 10° N 21:02:39 90° ESE 21:03:23 72° S
CZ-2C R/B 3.7 21:04:46 10° N 21:09:36 41° WNW 21:14:10 11° SW
Cosmos 1992 Rocket 4.4 21:05:45 10° NNW 21:10:43 57° W 21:10:43 57° W
COSMOS 2455 4.4 21:06:35 10° N 21:11:09 23° NE 21:11:09 23° NE
Meteor 1-11 4.4 21:06:59 10° N 21:12:06 69° NNE 21:12:06 69° NNE
Cosmos 1295 Rocket 4.5 21:10:59 10° N 21:16:48 75° NNE 21:16:48 75° NNE
Meteor 2-17 Rocket 4.4 21:14:54 10° N 21:21:00 77° W 21:21:00 77° W
Cosmos 1656 Rocket 4.2 21:18:09 10° NNW 21:22:37 54° N 21:22:37 54° N
ISS -0.4 21:20:40 10° NW 21:21:09 13° NW 21:21:09 13° NW
ERS-1 Rocket 4.1 21:28:47 38° N 21:28:47 38° N 21:31:52 10° N
Resurs 01 Rocket 3.7 21:30:38 22° W 21:30:38 22° W 21:34:02 10° NW
Cosmos 2154 Rocket 4.4 21:29:54 10° NNW 21:36:07 58° W 21:36:22 57° WSW
Cosmos 2369 Rocket 3.2 21:34:53 10° NW 21:39:39 39° W 21:39:39 39° W
Cosmos 1943 4.5 22:01:06 36° WNW 22:01:07 36° WNW 22:06:22 10° N
Cosmos 1943 Rocket 4.3 22:01:02 10° WNW 22:04:25 18° W 22:04:25 18° W
NOSS 3-4 (A) 4.2 22:07:55 10° NW 22:13:24 59° NNW 22:13:24 59° NNW
NOSS 3-4 (C) 4.2 22:08:01 10° NW 22:13:29 59° NNW 22:13:29 59° NNW
Terra 4.3 22:28:29 18° NNW 22:28:29 18° NNW 22:29:47 10° NNW
ATLAS 2AS CENTAUR R/B 3.9 22:40:22 10° NW 22:45:08 39° WNW 22:45:08 39° WNW
